COSMOS 1275 DEB

Satellite information

Favourite Embed

Satellite Type and Status

DEBRISIN ORBIT

Key statistics

Satellite COSMOS 1275 DEB at a glance.

Uptime

16166

Days in orbit

Revolutions

≈ 14.2

Per day

Orbit

LEO

Low Earth Orbit

Inclination

82.8

Latest

Satellite identification and parameters

Extended collection of information and parameters for COSMOS 1275 DEB.

Object identification

Identified? True

Debris? True

Object name: COSMOS 1275 DEB

International designator: 1981-053JC

Object number (NORAD): 14407

Object ID (CCSDS): 14407

Country: COMMONWEALTH OF INDEPENDENT STATES (CIS)

Current information (Y/N): Y

RCS size: SMALL

Orbital parameters

Period: 101.354 minutes

Inclination: 82.7662 deg

SMA: 7200.921 km

Apoapsis: 854.509 km

Periapsis: 791.062 km

RAAN: 121.5097 deg

Eccentricy: 0.00440545

Argument of periapsis: 26.4462 deg

Mean anomaly: 333.8953 deg

Mean motion: 14.2076 rev/day

Mean motion (dot): 0.00003857 rev/day2

B* drag term: 0.001763436 1/REarth

Two-line elements (TLE)

Creation date: Sept. 7, 2025, 3:09 a.m.

Reference frame: TEME

Reference center: EARTH

Epoch: Sept. 6, 2025, 4:30 p.m. UTC

TLE line 0: 0 COSMOS 1275 DEB

TLE line 1: 1 14407U 81053JC 25249.68771782 .00003857 00000-0 17634-2 0 9997

TLE line 2: 2 14407 82.7662 121.5097 0044055 26.4462 333.8953 14.20760000181639

Live tracking on map

Real-time ground track for satellite COSMOS 1275 DEB.

In-orbit conjunctions

A list of the most updated potential collisions computed for object COSMOS 1275 DEB.

Target Orbit TCA Probability of collision Miss distance Type
FENGYUN 1C DEB SSO 2025-08-29 08:50:17 0.0001364197 82.0 (m) DEBRIS
IRIDIUM 33 DEB LEO 2024-11-14 02:28:57 0.0001572974 688.0 (m) DEBRIS

Associated space launch

Navigation satellite providing location information for the Tsiklon-B navigation system

COSMOS 1275 DEB was lifted into orbit during the mission ‘Kosmos-3M | Parus 27’, on board a Kosmos-3M space rocket.

The launch took place on June 4, 1981, 3:41 p.m. from 132/2.

For more information about the launch, click the button.

Launch to space Kosmos-3M | Parus 27
Kosmos-3M | Parus 27

Agency: N/A

Status: Launch Successful

Launch date: June 4, 1981, 3:41 p.m. UTC

Rocket: Kosmos-3M

Launch pad: 132/2

Location: Plesetsk Cosmodrome, Russian Federation

...

Latest news about this satellite

There are no fresh news available about this satellite. Check back as we update our databases every day.


Newsletter sign-up

Weekly statistics, charts and insights to help you stay on top of the space industry.